Location: Ferchesar
(52.6477°N, 12.4298°E)
Time: 14:38:45
(UTC+01:00)

deb Explorer IX - Pass Details

Date: 09 December 2021
Orbit: 544 x 1082 km, 38.8° (Epoch: 18 January)

Event Time Altitude Azimuth Distance (km) Brightness Sun altitude
Rises 09:03:54 0° 225° (SW) 3,296 ? 5.1°
Reaches altitude 10° 09:07:41 10° 201° (SSW) 2,236 ? 5.5°
Maximum altitude 09:10:17 14° 171° (S) 1,892 ? 5.7°
Drops below altitude 10° 09:12:44 10° 140° (SE) 2,070 ? 5.9°
Sets 09:15:59 0° 114° (ESE) 2,881 ? 6.3°
